Location: Deurze
(52.9838°N, 6.6090°E)
Time: 19:13:35
(UTC+00:00)

Meteor 2-10 - Pass Details

Date: 11 March 2026
Orbit: 736 x 866 km, 81.2° (Epoch: 20 April)

Event Time Altitude Azimuth Distance (km) Brightness Sun altitude
Rises 18:48:44 0° 177° (S) 3,323 7.2 -12.5°
Reaches altitude 10° 18:51:11 10° 173° (S) 2,376 6.4 -12.9°
Maximum altitude 18:56:24 56° 97° (E) 933 4.1 -13.7°
Drops below altitude 10° 19:01:28 10° 20° (NNE) 2,312 6.4 -14.4°
Sets 19:03:50 0° 17° (NNE) 3,227 7.2 -14.8°
